EW4696 Weather Reports


Display with metric or nautical units.
time (UTC)temp
F
wind
direction
speed
MPH
gust
MPH
rain 1hr
in
rain 24hr
in
rain mn
in
humidity
%
barometer
mb
20210421153032 47 72 1.0 6.0 0.00 0.00 0.00 56 1029.1
20210421152837 46 54 1.0 6.0 0.00 0.00 0.00 56 1029.2
20210421143225 45 48 1.0 7.0 0.00 0.00 0.00 58 1029.3
20210421134531 43 45 1.0 9.0 0.00 0.00 0.00 63 1028.7
20210421133056 43 51 1.0 7.0 0.00 0.00 0.00 63 1028.7
20210421131505 43 32 1.0 7.0 0.00 0.00 0.00 65 1028.4
20210421130306 42 55 1.0 7.0 0.00 0.00 0.00 66 1027.9
20210421123549 42 54 1.0 5.0 0.00 0.00 0.00 67 1027.7
20210421122136 42 53 1.0 8.0 0.00 0.00 0.00 67 1027.4
20210421114527 42 0 0.0 7.0 0.00 0.00 0.00 69 1027.2
20210421113037 42 0 0.0 3.0 0.00 0.00 0.00 69 1027.2
20210421111623 42 46 1.0 5.0 0.00 0.00 0.00 69 1027.0
20210421104535 42 0 0.0 3.0 0.00 0.00 0.00 69 1026.5
20210421103039 42 67 1.0 5.0 0.00 0.00 0.00 68 1026.3
20210421101520 42 62 1.0 9.0 0.00 0.00 0.00 68 1026.3
20210421094543 42 55 1.0 7.0 0.00 0.00 0.00 68 1026.0
20210421093024 42 50 2.0 7.0 0.00 0.00 0.00 68 1025.8
20210421091537 43 53 1.0 8.0 0.00 0.00 0.00 68 1025.7
20210421084542 43 52 1.0 4.0 0.00 0.00 0.00 68 1025.5
20210421083030 44 52 2.0 6.0 0.00 0.00 0.00 67 1025.4
20210421081546 44 39 1.0 6.0 0.00 0.00 0.00 67 1025.3
20210421074534 45 53 1.0 6.0 0.00 0.00 0.00 68 1025.2
20210421073034 46 46 2.0 6.0 0.00 0.00 0.00 68 1025.2
20210421071534 46 59 2.0 7.0 0.00 0.00 0.00 68 1025.0
20210421064526 47 62 2.0 8.0 0.00 0.00 0.00 66 1024.9
20210421063047 48 50 2.0 10.0 0.00 0.00 0.00 66 1024.7
20210421061525 48 56 1.0 7.0 0.00 0.00 0.00 66 1024.5
20210421060445 49 62 1.0 8.0 0.00 0.00 0.00 65 1024.4
20210421054522 50 52 2.0 10.0 0.00 0.00 0.00 64 1024.4
20210421053119 50 54 1.0 5.0 0.00 0.00 0.00 64 1024.4
20210421051535 50 40 1.0 3.0 0.00 0.00 0.00 62 1024.3
20210421050019 51 76 1.0 6.0 0.00 0.00 0.00 63 1024.1
20210421044510 52 44 1.0 6.0 0.00 0.00 0.00 63 1024.2
20210421043023 53 0 0.0 5.0 0.00 0.00 0.00 62 1024.2
20210421041519 54 65 1.0 5.0 0.00 0.00 0.00 61 1024.1
20210421040022 54 61 1.0 8.0 0.00 0.00 0.00 60 1023.9
20210421034512 55 43 1.0 7.0 0.00 0.00 0.00 59 1023.6
20210421033010 56 0 0.0 2.0 0.00 0.00 0.00 59 1023.2
20210421031515 56 0 0.0 3.0 0.00 0.00 0.00 58 1023.0
20210421030051 57 52 1.0 7.0 0.00 0.00 0.00 57 1022.6
20210421024511 58 52 1.0 8.0 0.00 0.00 0.00 57 1022.3
20210421023038 58 0 0.0 7.0 0.00 0.00 0.00 57 1022.0
20210421021522 59 0 0.0 2.0 0.00 0.00 0.00 57 1021.6
20210421020027 59 0 0.0 4.0 0.00 0.00 0.00 56 1021.4
20210421014517 60 0 0.0 3.0 0.00 0.00 0.00 55 1021.1
20210421013010 60 21 1.0 7.0 0.00 0.00 0.00 54 1020.6
20210421011518 61 0 0.0 6.0 0.00 0.00 0.00 54 1020.2
20210421010026 62 84 1.0 5.0 0.00 0.00 0.00 53 1019.9
20210421004527 63 64 1.0 11.0 0.00 0.00 0.00 52 1019.7
20210421003014 64 61 1.0 5.0 0.00 0.00 0.00 51 1019.6
20210421001511 64 59 1.0 5.0 0.00 0.00 0.00 51 1019.1
20210421000023 65 22 1.0 5.0 0.00 0.00 0.00 51 1018.8
20210420234517 66 56 2.0 9.0 0.00 0.00 0.00 50 1018.6
20210420233016 66 51 1.0 8.0 0.00 0.00 0.00 49 1018.4
20210420231513 68 60 2.0 7.0 0.00 0.00 0.00 48 1018.3
20210420230012 69 37 1.0 7.0 0.00 0.00 0.00 47 1018.1
20210420224511 70 5 1.0 5.0 0.00 0.00 0.00 46 1017.9
20210420223020 71 58 1.0 5.0 0.00 0.00 0.00 45 1017.8
20210420221526 71 97 2.0 8.0 0.00 0.00 0.00 46 1017.6
20210420220023 72 252 1.0 6.0 0.00 0.00 0.00 45 1017.5
20210420214511 72 49 2.0 9.0 0.00 0.00 0.00 45 1017.2
20210420213029 73 62 2.0 8.0 0.00 0.00 0.00 45 1017.2
20210420211517 75 142 1.0 6.0 0.00 0.00 0.00 43 1017.1
20210420210017 76 78 1.0 8.0 0.00 0.00 0.00 45 1017.0
20210420204512 76 305 1.0 4.0 0.00 0.00 0.00 44 1016.9
20210420203018 77 65 2.0 9.0 0.00 0.00 0.00 44 1016.9
20210420201513 80 82 1.0 6.0 0.00 0.00 0.00 41 1016.8
20210420200021 83 0 0.0 5.0 0.00 0.00 0.00 33 1016.5
20210420194517 82 0 0.0 4.0 0.00 0.00 0.00 35 1016.6
20210420193025 81 0 0.0 3.0 0.00 0.00 0.00 35 1016.6
20210420191517 82 0 0.0 1.0 0.00 0.00 0.00 37 1016.9
20210420190011 81 0 0.0 5.0 0.00 0.00 0.00 35 1016.9
20210420184518 81 0 0.0 3.0 0.00 0.00 0.00 38 1017.0
20210420183017 80 0 0.0 2.0 0.00 0.00 0.00 36 1017.2
20210420181525 79 0 0.0 2.0 0.00 0.00 0.00 38 1017.3
20210420180053 79 0 0.0 1.0 0.00 0.00 0.00 41 1017.4
20210420174511 78 0 0.0 2.0 0.00 0.00 0.00 39 1017.7
20210420173021 78 0 0.0 2.0 0.00 0.00 0.00 41 1017.8
20210420171512 77 0 0.0 2.0 0.00 0.00 0.00 40 1017.9
20210420170223 76 0 0.0 4.0 0.00 0.00 0.00 42 1018.1
20210420164528 75 198 1.0 7.0 0.00 0.00 0.00 46 1018.3